[[{"header":{"parameterUnit":"m.s-1","parameterCategory":1,"la1":30.2991,"la2":30.254,"lo1":-89.0895,"lo2":-89.0444,"dy":0.0017,"dx":0.0017,"nx":28,"ny":28,"refTime":"2025-03-02T09:00:00:Z","depth":0,"parameterNumber":2,"parameterNumberName":"U-component_of_WINDS"},"data":[0,0,0,0,0,0,0,0,0,0,0,0,0,0,0,0,0,0,0,0,0,0,0,0,0,0,0,0,0,0,0,0,0,0,0,0,0,0,0,0,0,0,0,0,0,0,0,0,0,0,0,0,0,0,0,0,0,0,-5.8116,-5.8116,0,-5.8101,-5.8101,-5.8101,-5.7965,-5.7962,-5.7959,-5.7955,-5.7941,-5.7944,-5.7947,0,0,0,0,0,0,0,0,0,0,0,0,0,-5.8027,-5.8029,-5.8116,-5.8116,-5.8115,-5.8102,-5.8101,-5.8101,-5.7966,-5.7962,-5.7958,-5.7954,-5.794,-5.7944,-5.7947,0,0,0,0,0,0,0,0,0,0,0,0,0,-5.8044,-5.803,-5.8116,-5.8046,-5.804,-5.8102,-5.8101,-5.8101,-5.7967,-5.7962,-5.7957,-5.7952,-5.7939,-5.7943,-5.7947,-5.8075,0,0,-5.796,-5.7962,0,0,0,0,0,0,0,0,-5.8043,-5.8048,-5.8057,-5.8051,-5.8044,-5.803,-5.8064,-5.8092,-5.7968,-5.7995,-5.7955,-5.7949,-5.7975,-5.7976,-5.7984,-5.8074,-5.8073,-5.796,-5.7963,-5.7965,-5.7966,0,0,0,0,0,0,0,-5.8042,-5.8047,-5.811,-5.8057,-5.8049,-5.8016,-5.8013,-5.8069,-5.8013,-5.7992,-5.7982,-5.7982,-5.797,-5.7981,-5.7983,-5.8073,-5.796,-5.7964,-5.7967,-5.7968,-5.8267,-5.8272,0,0,0,0,0,0,-5.8051,-5.8047,-5.811,-5.811,-5.8031,-5.8022,-5.8018,-5.804,-5.8012,-5.8003,-5.7986,-5.7976,-5.7976,-5.7978,-5.7982,-5.8128,-5.7965,-5.7969,-5.7971,-5.8261,-5.8268,-5.8274,0,0,0,0,0,0,-5.8049,-5.8058,-5.8111,-5.8076,-5.808,-5.8029,-5.8054,-5.8042,-5.8052,-5.8008,-5.7998,-5.8007,-5.7972,-5.7976,-5.8053,-5.8126,-5.7971,-5.7974,-5.8255,-5.8263,-5.8271,-5.8423,0,0,0,0,0,0,-5.8047,-5.8058,-5.8106,-5.8078,-5.8082,-5.8182,-5.8058,-5.8045,-5.8059,-5.8045,-5.8025,-5.8016,-5.7968,-5.8047,-5.8057,-5.8129,-5.7978,-5.8248,-5.8259,-5.8268,-5.8411,-5.8435,-5.8456,0,0,0,0,0,-5.8045,-5.8149,-5.8109,-5.8117,-5.8141,-5.8187,-5.8189,-5.8131,-5.8066,-5.8113,-5.8085,-5.8017,-5.8117,-5.8056,-5.8066,-5.814,-5.8243,-5.8256,-5.8268,-5.8401,-5.8431,-5.8456,0,0,0,0,0,0,-5.8186,-5.8144,-5.8099,-5.8197,-5.8197,-5.8164,-5.8221,-5.8165,-5.8182,-5.8169,-5.8097,-5.8093,-5.8181,-5.8168,-5.8101,-5.8262,-5.8168,-5.8183,-5.8267,-5.8294,-5.8316,-5.8316,-5.7981,0,0,0,0,0,-5.8229,-5.827,-5.8231,-5.8322,-5.8324,-5.8273,-5.8291,-5.8247,-5.8243,-5.8242,-5.822,-5.8219,-5.825,-5.8272,-5.8298,-5.841,-5.8403,-5.8466,-5.8488,-5.8507,-5.852,-5.8578,-5.8605,-5.8314,-5.8314,-5.8314,0,0,-5.8318,-5.83,-5.833,-5.835,-5.8344,-5.8387,-5.8274,-5.8324,-5.8356,-5.825,-5.832,-5.8304,-5.8299,-5.8393,-5.8434,-5.8386,-5.8599,-5.8523,-5.8538,-5.854,-5.8593,-5.8621,-5.8645,-5.8322,-5.8321,-5.8319,0,0,-5.8501,-5.8492,-5.8566,-5.8563,-5.8556,-5.8522,-5.854,-5.8516,-5.8501,-5.8571,-5.8492,-5.8529,-5.8584,-5.8583,-5.859,-5.8776,-5.8713,-5.8786,-5.8903,-5.896,-5.8983,-5.9003,-5.9067,-5.9092,-5.88,-5.88,-5.88,0,-5.8611,-5.8674,-5.8611,-5.8668,-5.8678,-5.8585,-5.866,-5.866,-5.8662,-5.8672,-5.8618,-5.8686,-5.8675,-5.8768,-5.8814,-5.8823,-5.8841,-5.8787,-5.8984,-5.9004,-5.9021,-5.9082,-5.9107,-5.8809,-5.8808,-5.8807,-5.8806,0,-5.881,-5.8854,-5.8915,-5.8919,-5.8938,-5.9003,-5.8951,-5.8977,-5.8933,-5.8905,-5.8977,-5.8962,-5.8983,-5.9003,-5.8959,-5.909,-5.906,-5.8997,-5.89,-5.9059,-5.9115,-5.9138,-5.8822,-5.8818,-5.8816,-5.8814,0,0,-5.9079,-5.9049,-5.9072,-5.9073,-5.9059,-5.9093,-5.9155,-5.9175,-5.9199,-5.9204,-5.9253,-5.9303,-5.9245,-5.9253,-5.9209,-5.926,-5.9406,-5.919,-5.9189,-5.9229,-5.9548,-5.9594,-5.9622,-5.9366,-5.937,-5.9374,-5.9548,0,-5.9254,-5.9356,-5.9303,-5.9412,-5.9452,-5.9366,-5.9419,-5.9417,-5.9393,-5.9424,-5.9398,-5.9434,-5.9355,-5.9359,-5.9405,-5.9379,-5.9469,-5.9366,-5.941,-5.9413,-5.9412,-5.9651,-5.97,-5.9865,-5.9569,-5.9573,-5.9576,0,-5.947,-5.9485,-5.9599,-5.9578,-5.9592,-5.9642,-5.9656,-5.9688,-5.9684,-5.9663,-5.9673,-5.9618,-5.9677,-5.9584,-5.9664,-5.9595,-5.9611,-5.9601,-5.9606,-5.9606,-5.9502,-5.9656,-5.9916,-5.994,-5.961,-5.9607,-5.9605,0,-5.9653,-5.9702,-5.9776,-5.9779,-5.9757,-5.9794,-5.9786,-5.9777,-5.9793,-5.9807,-5.9817,-5.9838,-5.9849,-5.9867,-5.9819,-5.9756,-5.9906,-5.9809,-5.9889,-5.9891,-5.9922,-5.992,-6.0187,-5.9937,-5.9937,-5.9936,-5.9936,0,-5.9853,-5.9925,-5.9857,-5.9903,-5.9982,-5.9921,-6.0001,-5.9984,-5.9977,-6.0018,-5.9945,-5.9985,-5.992,-5.9954,-5.9917,-5.9988,-5.9995,-5.9979,-5.9968,-5.9984,-5.9986,-5.9991,-5.9978,-5.9943,-5.9941,-5.994,-5.9939,0,-6.0069,-6.0027,-6.0101,-6.0075,-6.007,-6.0129,-6.0106,-6.0147,-6.012,-6.0172,-6.0181,-6.0137,-6.0173,-6.0128,-6.0159,-6.0135,-6.0232,-6.0205,-6.0233,-6.0224,-6.0306,-6.0299,-6.0583,-6.0617,-6.0349,-6.0351,-6.0353,0,-6.0197,-6.0251,-6.0231,-6.0253,-6.0249,-6.0286,-6.0302,-6.0245,-6.0265,-6.0266,-6.0307,-6.0337,-6.0357,-6.0419,-6.039,-6.0414,-6.0385,-6.0484,-6.0388,-6.0403,-6.0385,-6.0381,-6.0385,-6.0502,-6.0506,-6.0508,-6.0511,0,-6.0429,-6.0406,-6.0432,-6.0452,-6.0474,-6.0486,-6.0494,-6.0516,-6.0456,-6.0483,-6.0519,-6.0535,-6.0568,-6.0598,-6.0615,-6.0607,-6.0549,-6.0541,-6.0561,-6.0576,-6.059,-6.0582,-6.0284,-6.0534,-6.0532,-6.053,-6.0529,-6.0528,-6.0604,-6.0647,-6.064,-6.0672,-6.0672,-6.068,-6.0717,-6.0695,-6.0724,-6.0745,-6.0711,-6.0756,-6.0751,-6.0767,-6.0767,-6.0801,-6.0758,-6.0787,-6.0794,-6.0801,-6.0813,-6.0587,-6.0804,-6.0804,-6.0803,-6.0802,-6.0802,0,-6.083,-6.0822,-6.0852,-6.0864,-6.089,-6.0834,-6.084,-6.0865,-6.0905,-6.0906,-6.0928,-6.0969,-6.0999,-6.0974,-6.0998,-6.103,-6.1004,-6.1039,-6.1034,-6.1033,-6.0851,-6.083,-6.1059,-6.1059,-6.1059,-6.1059,-6.1059,-6.1059,-6.0951,-6.1021,-6.0998,-6.1068,-6.1058,-6.1102,-6.1109,-6.1117,-6.1118,-6.1167,-6.1191,-6.1175,-6.1165,-6.1188,-6.1213,-6.1205,-6.1216,-6.126,-6.1242,-6.1071,-6.1046,-6.1022,-6.1002,-6.1263,-6.1264,-6.1421,-6.1423,-6.1424]},{"header":{"parameterUnit":"m.s-1","parameterCategory":1,"la1":30.2991,"la2":30.254,"lo1":-89.0895,"lo2":-89.0444,"dy":0.0017,"dx":0.0017,"nx":28,"ny":28,"refTime":"2025-03-02T09:00:00:Z","depth":0,"parameterNumber":3,"parameterNumberName":"V-component_of_WINDS"},"data":[0,0,0,0,0,0,0,0,0,0,0,0,0,0,0,0,0,0,0,0,0,0,0,0,0,0,0,0,0,0,0,0,0,0,0,0,0,0,0,0,0,0,0,0,0,0,0,0,0,0,0,0,0,0,0,0,0,0,1.0504,1.0504,0,1.052,1.052,1.052,1.0578,1.0579,1.0581,1.0582,1.0594,1.0593,1.0592,0,0,0,0,0,0,0,0,0,0,0,0,0,1.0522,1.0522,1.0504,1.0504,1.0504,1.052,1.052,1.052,1.0578,1.0579,1.0581,1.0582,1.0594,1.0593,1.0592,0,0,0,0,0,0,0,0,0,0,0,0,0,1.0524,1.0521,1.0504,1.0535,1.0538,1.052,1.052,1.052,1.0577,1.0579,1.0581,1.0583,1.0595,1.0593,1.0592,1.0543,0,0,1.0588,1.0587,0,0,0,0,0,0,0,0,1.0523,1.0523,1.053,1.0533,1.0536,1.0549,1.0531,1.0528,1.0577,1.0562,1.0582,1.0584,1.0577,1.0577,1.0576,1.0544,1.0544,1.0588,1.0587,1.0586,1.0586,0,0,0,0,0,0,0,1.0523,1.0523,1.051,1.053,1.0534,1.0548,1.055,1.053,1.0558,1.0564,1.0568,1.0569,1.0579,1.0577,1.0576,1.0545,1.0588,1.0586,1.0585,1.0585,1.0476,1.0474,0,0,0,0,0,0,1.0519,1.0522,1.051,1.0511,1.0535,1.0546,1.0548,1.0543,1.0559,1.0563,1.0567,1.0572,1.0578,1.0578,1.0577,1.0523,1.0586,1.0585,1.0584,1.0478,1.0476,1.0474,0,0,0,0,0,0,1.0519,1.0518,1.0509,1.0518,1.0518,1.0543,1.0536,1.0542,1.054,1.0561,1.0566,1.056,1.058,1.0579,1.0552,1.0524,1.0584,1.0583,1.0481,1.0478,1.0475,1.0413,0,0,0,0,0,0,1.052,1.0517,1.0499,1.0517,1.0517,1.0484,1.0535,1.0541,1.0538,1.0544,1.0556,1.056,1.0581,1.0554,1.0551,1.0523,1.0582,1.0483,1.0479,1.0476,1.0417,1.0408,1.04,0,0,0,0,0,1.052,1.048,1.0498,1.0496,1.0495,1.0482,1.0482,1.0509,1.0535,1.0518,1.0532,1.056,1.0528,1.0551,1.0548,1.0519,1.0485,1.048,1.0476,1.0421,1.041,1.04,0,0,0,0,0,0,1.0456,1.0483,1.0503,1.0468,1.0473,1.0492,1.047,1.0495,1.0492,1.0497,1.0529,1.0531,1.05,1.0507,1.0532,1.0474,1.0511,1.0506,1.0471,1.046,1.0451,1.045,1.0581,0,0,0,0,0,1.0439,1.0427,1.045,1.0416,1.0418,1.0444,1.0439,1.0459,1.0465,1.0467,1.0479,1.0483,1.0474,1.0468,1.046,1.0419,1.0423,1.0398,1.0389,1.0382,1.0377,1.0357,1.0347,1.0458,1.0458,1.0458,0,0,1.0401,1.0414,1.0404,1.0404,1.041,1.0397,1.0445,1.0428,1.0419,1.0464,1.0441,1.045,1.0456,1.0422,1.0408,1.0427,1.0347,1.0376,1.037,1.0369,1.0351,1.0341,1.0331,1.0455,1.0456,1.0456,0,0,1.0326,1.0334,1.0308,1.0314,1.0324,1.0342,1.0335,1.0352,1.036,1.0337,1.0372,1.036,1.0344,1.0348,1.0347,1.0277,1.0303,1.0273,1.0227,1.0208,1.0199,1.0191,1.0167,1.0158,1.0268,1.0268,1.0268,0,1.0277,1.026,1.0291,1.0274,1.0273,1.0315,1.0289,1.0293,1.0299,1.0298,1.0319,1.0301,1.0308,1.0277,1.026,1.0258,1.0252,1.0272,1.0198,1.019,1.0184,1.0161,1.0152,1.0265,1.0265,1.0265,1.0266,0,1.0201,1.0188,1.0166,1.0173,1.017,1.0148,1.0175,1.0168,1.019,1.0205,1.0182,1.0192,1.0189,1.0183,1.0202,1.0155,1.0166,1.0192,1.023,1.0169,1.0148,1.014,1.0259,1.0261,1.0262,1.0263,0,0,1.0084,1.0111,1.0103,1.0107,1.0122,1.0113,1.0093,1.0092,1.0086,1.0089,1.0073,1.006,1.0085,1.0084,1.0105,1.0088,1.0033,1.0116,1.0117,1.0101,0.9982,0.9963,0.9952,1.005,1.0049,1.0047,0.9982,0,1.0014,0.9983,1.0012,0.9975,0.9964,1.0006,0.9989,0.9996,1.001,1.0003,1.0018,1.0009,1.0042,1.0042,1.0027,1.0042,1.0009,1.0048,1.0036,1.0035,1.0033,0.9941,0.992,0.9858,0.9974,0.9972,0.9971,0,0.9927,0.9929,0.9892,0.9911,0.9908,0.9892,0.9894,0.9887,0.9896,0.9908,0.9909,0.9935,0.9917,0.9955,0.9931,0.9956,0.9953,0.996,0.9958,0.9958,0.9999,0.9939,0.9838,0.9829,0.9959,0.996,0.9961,0,0.9847,0.984,0.9818,0.982,0.9842,0.9831,0.9839,0.985,0.9848,0.985,0.9849,0.9848,0.9847,0.9845,0.987,0.9895,0.9843,0.9883,0.9853,0.9852,0.984,0.984,0.9737,0.9837,0.9837,0.9837,0.9837,0,0.9766,0.9742,0.9783,0.9769,0.9743,0.9776,0.975,0.9762,0.9773,0.9762,0.9797,0.9786,0.982,0.9812,0.9831,0.9809,0.9808,0.9817,0.9823,0.9814,0.9813,0.9813,0.9818,0.9835,0.9835,0.9836,0.9836,0,0.9672,0.9699,0.9677,0.9701,0.9706,0.9686,0.9706,0.9694,0.9712,0.9698,0.9696,0.9723,0.9716,0.9742,0.9738,0.9751,0.9719,0.9731,0.9716,0.972,0.9689,0.9692,0.9583,0.9571,0.9677,0.9676,0.9675,0,0.9619,0.9602,0.9624,0.962,0.9627,0.962,0.9619,0.9651,0.9649,0.9659,0.9646,0.9643,0.9642,0.9629,0.9647,0.9646,0.9659,0.9621,0.9658,0.9651,0.9659,0.966,0.9659,0.9612,0.9611,0.961,0.9609,0,0.9521,0.9536,0.9534,0.9536,0.9535,0.9538,0.9543,0.9538,0.9573,0.9568,0.9562,0.9562,0.956,0.9556,0.9559,0.9567,0.9594,0.9597,0.9591,0.9582,0.9574,0.9579,0.9695,0.96,0.9601,0.9601,0.9602,0.9602,0.9447,0.9434,0.9449,0.9445,0.9454,0.9459,0.9449,0.9467,0.9463,0.9465,0.9484,0.9475,0.9487,0.9493,0.9499,0.9492,0.951,0.9499,0.9497,0.9494,0.9489,0.9575,0.9493,0.9493,0.9493,0.9493,0.9494,0,0.9352,0.9364,0.9361,0.9369,0.9366,0.9394,0.9402,0.9398,0.939,0.9399,0.9398,0.9393,0.939,0.9409,0.9409,0.94,0.9412,0.9399,0.94,0.9402,0.9473,0.9479,0.9389,0.9389,0.9389,0.9389,0.9389,0.9389,0.9302,0.9283,0.93,0.9285,0.9297,0.929,0.9293,0.9298,0.9305,0.9298,0.9297,0.931,0.9323,0.9325,0.9323,0.9329,0.9328,0.931,0.932,0.9386,0.9396,0.9406,0.9412,0.9309,0.9309,0.925,0.9249,0.9249]}]]